Weather in Tsolga

Russia / Republic of Buryatia     51°04′42″N   107°14′44″E
temp.,
°C
wind,
m/s
gust,
m/s
humid.,
%
clouds,
%
prec.,
mm/h
press.,
hPa
HPBL,
m
23 april, fri
fri2323:00−2nne4868100 2.4 1036678
02:00−3nne3868100 2.7 1037502
05:00−4nnw2379100 0.0 103972
08:00−2n4657100 0.0 1040511
11:00+2nne4556100 0.0 10391030
14:00+5ne4550100 0.0 10371421
17:00+6ne4547100 0.0 10361515
20:00+3nne3558100 0.0 1037123
24 april, sat
sat2423:00+1n2359100 0.0 103888
02:00+1n2261100 0.1 103775
05:000nne1271100 0.3 103685
08:00+2ne2469100 0.4 1034276
11:00+9ene5652100 0.0 1029851
14:00+12e3648100 0.0 10251225
17:00+13se3451100 0.0 1020711
20:00+8sw2371100 0.0 102264
25 april, sun
sun2523:00+7ne2286100 0.9 102168
02:00+7ene2592100 1.3 1018183
05:00+6ne2392100 1.3 1016100
08:00+6nw1295100 2.6 101761
11:00+1nw4895100 2.1 1020467
14:00+3nw4681100 3.1 1020643
17:00+3nnw5781100 0.4 1020616
20:00+3nnw2374100 0.6 1020103
26 april, mon
mon2623:00−1wsw228670 0.0 102012
02:00−2w218825 0.0 101911
05:00−3wnw258450 0.0 1019101
08:00+1nnw5863100 0.0 10191151
11:00+3nnw10125899 0.0 10191609
14:00+4nnw91249100 0.1 10191856
17:00+5nnw9124987 0.1 10181826
20:00+3nw71363100 0.1 1021862
27 april, tue
tue2723:00+1nw512696 0.0 1023540
02:000nw714748 0.0 1024810
05:000nw51179100 0.1 1025711
08:00+1nw8126397 0.2 10261381
11:00+5nw81046100 0.1 10251834
14:00+7nnw71039100 0.1 10232142
17:00+6nnw784183 0.0 10221887
20:00+3nnw47592 0.0 1023188